map of YBB home
YBB - Airport
Location
City:  Kugaaruk, Kitikmeot, Nunavut, Canada
Near (Alt.):Pelly Bay
Name:Kugaaruk Airport
ICAO:CYBB
IATA:YBB

Details
Type:Airport (Airfield)
Use:Public/Civil
Latitude:6832'09"N (68.535833)
Longitude:8948'19"W (-89.805277)
Elevation:51 ft (16 m)
Variation:17.18W (WMM2015 magnetic declination)
0.39 annual change
Runways:1
Longest:5000 ft (1524 m)

Time
Time Zone:UTC-6 (DST-5)
Local Time:

Weather
METAR:CYBB 090300Z 25014KT 10SM IC DRSN FEW035 M22/M25 A3011 RMK SC2 -19.1/-23.7/TR/23/SNW CVR/MUCH LOOSE SLP202
TAF:CYBB 081838Z 0819/0824 28015G25KT P6SM IC SCT020 BKN040
TEMPO 0819/0824 4SM BLSN BKN020
RMK NXT FCST WILL BE ISSUED AT 091445Z

Related Locations
Nearby:
Farthest:YWKS: 11859 mi / 19085 km
Wilkins Runway (Casey), Upper Peterson Glacier, AQ

Find:

   beyond  
but within

Other Information
Maps:
NOTAMs:
Links:
Sources:

  
flag of Canada
flag of Nunavut
  

Airport Diagram

Airport diagram for YBB

Airport diagram PDF

Sectional Chart

Flight Planning
at skyvector.com

Satellite Image

Google Maps Satellite view

 

Copyright © 2004-2016 Karl L. Swartz. All rights reserved.
The Great Circle Mapper name and logo are trademarks of the Great Circle Mapper.
All other trademarks mentioned herein belong to their respective owners.
Please see credits for attibutions and further copyright information.

  Follow gcmap on Facebook Follow gcmap on Twitter Follow gcmap on Google+ GCmap on LinkedIn

hCard Microformat

Geo Microformat